Weather reports worldwide

Advertisment
Norderney, Germany (10113): temperature & dewpoint: 09.12.2018 23:00:00 - 15.12.2018 23:00:00 (CET)Norderney, Germany (10113): temperature 5cm & temperature -5cm: 09.12.2018 23:00:00 - 15.12.2018 23:00:00 (CET)Norderney, Germany (10113): temperature -20cm & temperature -100cm: 09.12.2018 23:00:00 - 15.12.2018 23:00:00 (CET)Norderney, Germany (10113): wind speed & gusts: 09.12.2018 23:00:00 - 15.12.2018 23:00:00 (CET)Norderney, Germany (10113): wind direction: 09.12.2018 23:00:00 - 15.12.2018 23:00:00 (CET)Norderney, Germany (10113): reduced air pressure: 09.12.2018 23:00:00 - 15.12.2018 23:00:00 (CET)Norderney, Germany (10113): visibility: 09.12.2018 23:00:00 - 15.12.2018 23:00:00 (CET)Norderney, Germany (10113): sunshine duration: 09.12.2018 23:00:00 - 15.12.2018 23:00:00 (CET)Norderney, Germany (10113): precipitation: 09.12.2018 23:00:00 - 15.12.2018 23:00:00 (CET)
Date & Time tt [°C] td [°C] tt 5cm [°C] tt -5cm [°C] tt -20cm [°C] tt -100cm [°C] ff [km/h] ff [kn] fx [km/h] fx [kn] dd ppp [hPa] vv [km] sd [min] rr [mm]
15.12.2018 23:00:00 - - - - - - - - - - - - - - -
15.12.2018 22:00:00 -0,2 -4,8 -0,8 0,4 1,9 7,2 29 16 52 28 SE 1018,1 19 0 0,0
15.12.2018 21:00:00 0,1 -4,6 -0,3 0,4 1,9 7,2 29 16 51 27 SE 1019,2 18 0 0,0
15.12.2018 20:00:00 0,4 -4,5 0,1 0,5 1,9 7,3 29 15 50 27 SSE 1020,4 20 0 0,0
15.12.2018 19:00:00 0,5 -4,1 0,2 0,5 2,0 7,3 27 14 52 28 SE 1021,3 20 0 0,0
15.12.2018 18:00:00 0,6 -4,0 0,2 0,5 2,0 7,3 25 13 48 26 SE 1022,0 19 0 0,0
15.12.2018 17:00:00 0,8 -3,5 0,3 0,4 2,1 7,3 24 13 41 22 SE 1023,1 17 0 0,0
15.12.2018 16:00:00 0,8 -3,4 0,5 0,8 2,1 7,3 23 13 38 20 SE 1024,1 15 0 0,0
15.12.2018 15:00:00 1,0 -3,2 0,8 1,1 2,1 7,3 20 11 31 17 SE 1025,0 14 0 0,0
15.12.2018 14:00:00 1,1 -3,0 1,0 1,1 2,0 7,3 17 9 32 17 SE 1025,6 15 0 0,0
15.12.2018 13:00:00 0,8 -2,7 0,8 1,0 2,0 7,4 19 11 32 18 SE 1026,1 14 0 0,0
15.12.2018 12:00:00 0,6 -2,5 0,5 0,7 2,0 7,4 15 8 27 15 SE 1027,0 13 0 0,0
15.12.2018 11:00:00 0,7 -3,0 0,5 0,5 2,0 7,4 14 8 26 14 SE 1027,9 14 0 0,0
15.12.2018 10:00:00 0,5 -3,1 0,3 0,5 2,0 7,4 16 9 28 15 SE 1027,7 15 0 0,0
15.12.2018 09:00:00 0,4 -2,7 0,1 0,3 2,0 7,4 16 9 25 14 SE 1027,7 13 0 0,0
15.12.2018 08:00:00 0,2 -2,3 -0,1 0,3 2,1 7,4 14 8 28 15 SE 1027,6 12 0 0,0
15.12.2018 07:00:00 0,1 -1,8 -0,3 0,4 2,1 7,4 15 8 26 14 SE 1027,7 9 0 0,0
15.12.2018 06:00:00 0,3 -1,9 -0,1 0,4 2,2 7,4 16 9 26 14 SE 1027,9 11 0 0,0
15.12.2018 05:00:00 0,3 -2,0 -0,1 0,5 2,3 7,5 13 7 23 13 SE 1027,9 11 0 0,0
15.12.2018 04:00:00 0,5 -2,0 0,1 0,5 2,3 7,5 14 8 26 14 SE 1028,0 13 0 0,0
15.12.2018 03:00:00 0,6 -2,1 0,2 0,5 2,4 7,5 12 7 24 13 SE 1028,3 15 0 0,0
15.12.2018 02:00:00 0,6 -2,0 0,0 0,5 2,5 7,5 12 6 24 13 SE 1027,9 17 0 0,0
15.12.2018 01:00:00 0,8 -1,9 0,1 0,6 2,6 7,5 14 7 23 12 SE 1027,7 18 0 0,0
15.12.2018 00:00:00 1,0 -1,9 0,4 0,9 2,7 7,5 13 7 21 11 SE 1027,5 19 0 0,0
14.12.2018 23:00:00 1,3 -1,9 0,8 1,1 2,8 7,5 12 6 22 12 SE 1027,8 24 0 0,0
14.12.2018 22:00:00 1,6 -1,6 1,0 1,3 2,9 7,5 13 7 20 11 SE 1027,9 28 0 0,0
14.12.2018 21:00:00 1,9 -2,0 1,3 1,4 3,0 7,5 13 7 21 11 ESE 1027,9 31 0 0,0
14.12.2018 20:00:00 1,9 -2,0 1,2 1,5 3,1 7,6 9 5 20 11 ESE 1027,8 34 0 0,0
14.12.2018 19:00:00 2,0 -2,1 1,4 1,6 3,2 7,6 12 7 23 12 ESE 1027,4 37 0 0,0
14.12.2018 18:00:00 2,2 -2,5 1,7 1,8 3,4 7,6 11 6 29 16 E 1027,2 43 0 0,0
14.12.2018 17:00:00 2,4 -2,5 1,9 2,2 3,5 7,6 14 8 27 14 E 1027,1 54 0 0,0
14.12.2018 16:00:00 2,4 -1,3 2,0 2,7 3,5 7,6 12 7 21 11 ESE 1026,8 45 0 0,0
14.12.2018 15:00:00 2,7 -0,1 2,5 3,1 3,5 7,6 11 6 19 11 ESE 1026,5 37 0 0,0
14.12.2018 14:00:00 2,8 0,3 2,8 3,2 3,3 7,6 11 6 24 13 ESE 1026,1 43 0 0,0
14.12.2018 13:00:00 2,7 0,1 2,8 3,0 3,2 7,6 14 8 26 14 ESE 1026,3 45 0 0,0
14.12.2018 12:00:00 2,7 0,4 2,7 2,7 3,1 7,7 13 7 20 11 ESE 1026,5 31 0 0,0
14.12.2018 11:00:00 2,5 0,5 2,4 2,3 3,1 7,7 10 5 20 11 ESE 1026,8 34 0 0,0
14.12.2018 10:00:00 2,4 0,7 2,1 2,0 3,0 7,7 13 7 19 11 ESE 1026,5 28 0 0,0
14.12.2018 09:00:00 2,4 0,5 1,9 1,8 3,1 7,7 13 7 27 15 ESE 1026,1 25 0 0,0
14.12.2018 08:00:00 2,5 0,4 2,1 1,9 3,1 7,7 16 9 27 14 E 1025,4 30 0 0,0
14.12.2018 07:00:00 2,7 0,6 2,2 1,9 3,1 7,7 15 8 26 14 E 1025,2 37 0 0,0
14.12.2018 06:00:00 2,6 1,0 1,9 1,9 3,1 7,7 11 6 22 12 E 1025,1 23 0 0,0
14.12.2018 05:00:00 2,8 1,0 2,3 1,9 3,1 7,8 11 6 24 13 E 1025,1 40 0 0,0
14.12.2018 04:00:00 2,9 0,7 2,3 2,0 3,2 7,8 12 7 22 12 E 1025,4 38 0 0,0
14.12.2018 03:00:00 3,1 0,2 2,6 2,0 3,2 7,8 13 7 26 14 E 1025,6 45 0 0,0
14.12.2018 02:00:00 2,9 0,8 2,4 2,0 3,2 7,8 11 6 24 13 E 1025,4 30 0 0,0
14.12.2018 01:00:00 2,8 0,8 2,3 2,0 3,2 7,8 13 7 23 12 E 1025,4 33 0 0,0
14.12.2018 00:00:00 2,9 1,0 2,3 2,0 3,2 7,8 13 7 23 12 E 1025,5 22 0 0,0
13.12.2018 23:00:00 2,9 1,3 2,4 2,0 3,1 7,8 11 6 25 13 E 1025,2 18 0 0,0
13.12.2018 22:00:00 3,2 1,2 2,8 1,9 3,1 7,8 15 8 27 14 E 1025,1 28 0 0,0
13.12.2018 21:00:00 2,7 1,0 2,0 1,5 3,1 7,8 7 4 14 8 E 1024,7 37 0 0,0
13.12.2018 20:00:00 2,2 0,0 1,5 1,3 3,2 7,9 8 4 14 8 ESE 1024,7 53 0 0,0
13.12.2018 19:00:00 2,1 -1,1 1,1 0,9 3,4 7,9 10 5 20 11 E 1024,5 75 0 0,0
13.12.2018 18:00:00 1,8 -1,3 0,7 1,2 3,7 7,9 11 6 19 11 E 1024,8 59 0 0,0
13.12.2018 17:00:00 2,3 -0,5 1,7 1,9 3,8 7,9 10 6 20 11 E 1024,9 62 1 0,0
13.12.2018 16:00:00 2,4 -0,6 1,7 2,5 4,0 7,9 11 6 22 12 E 1024,8 63 41 0,0
13.12.2018 15:00:00 2,5 -0,5 2,4 3,1 3,9 7,9 11 6 24 13 ESE 1024,9 49 0 0,0
13.12.2018 14:00:00 2,6 -0,8 2,6 3,2 3,9 7,9 15 8 27 14 E 1025,4 62 0 0,0
13.12.2018 13:00:00 2,6 -0,7 2,7 3,1 3,9 7,9 12 7 29 16 E 1025,8 62 0 0,0
13.12.2018 12:00:00 2,8 -0,6 2,8 3,0 3,9 7,9 14 8 27 14 E 1026,0 64 0 0,0
13.12.2018 11:00:00 3,0 -0,2 2,9 2,9 3,8 7,9 17 9 31 17 E 1026,2 52 0 0,0
13.12.2018 10:00:00 3,2 0,1 3,0 2,7 3,8 7,9 15 8 30 16 E 1026,1 61 0 0,0
13.12.2018 09:00:00 3,1 0,5 2,8 2,6 3,9 8,0 13 7 25 13 E 1026,1 67 0 0,0
13.12.2018 08:00:00 2,9 0,8 2,5 2,3 4,0 8,0 13 7 21 11 ESE 1025,9 32 0 0,0
13.12.2018 07:00:00 2,9 -0,1 2,1 2,7 4,0 8,0 11 6 35 19 ESE 1025,7 50 0 0,0
13.12.2018 06:00:00 3,1 -0,3 2,9 2,9 4,1 8,0 18 10 35 19 E 1026,1 57 0 0,0
13.12.2018 05:00:00 3,6 0,1 3,3 2,9 4,1 8,0 16 9 31 17 E 1026,3 71 0 0,0
13.12.2018 04:00:00 3,6 0,8 3,2 3,1 4,2 8,0 18 10 32 17 E 1026,5 58 0 0,0
13.12.2018 03:00:00 3,9 1,6 3,5 3,1 4,2 8,0 13 7 28 15 E 1026,9 33 0 0,0
13.12.2018 02:00:00 3,9 1,0 3,6 3,0 4,2 8,0 14 7 26 14 E 1027,0 57 0 0,0
13.12.2018 01:00:00 3,8 1,6 3,4 2,8 4,2 8,0 12 7 23 13 E 1027,3 34 0 0,0
13.12.2018 00:00:00 3,1 0,9 2,6 2,2 4,4 8,0 13 7 26 14 ESE 1027,5 41 0 0,0
12.12.2018 23:00:00 2,7 0,5 1,2 2,7 4,6 8,0 12 6 26 14 E 1027,7 37 0 0,0
12.12.2018 22:00:00 3,9 1,2 3,3 3,4 4,7 8,0 16 9 31 17 E 1027,8 44 0 0,0
12.12.2018 21:00:00 4,0 1,8 3,4 3,3 4,9 8,0 16 8 29 15 E 1027,8 37 0 0,0
12.12.2018 20:00:00 4,2 1,7 3,5 3,8 5,0 8,1 16 9 31 17 ESE 1027,6 39 0 0,0
12.12.2018 19:00:00 4,7 1,9 4,3 4,2 5,0 8,1 17 9 33 18 E 1027,5 46 0 0,0
12.12.2018 18:00:00 4,7 2,5 4,3 4,3 5,1 8,1 15 8 27 14 E 1027,5 33 0 0,0
12.12.2018 17:00:00 4,7 2,2 4,3 4,5 5,1 8,1 10 5 17 9 E 1027,5 55 2 0,0
12.12.2018 16:00:00 4,8 1,6 4,5 4,8 5,1 8,1 8 5 18 10 E 1027,5 54 0 0,0
12.12.2018 15:00:00 5,0 1,8 4,9 5,3 5,0 8,1 11 6 19 10 E 1027,5 73 0 0,0
12.12.2018 14:00:00 4,8 1,7 5,0 5,1 4,9 8,1 7 4 23 12 E 1027,8 67 0 0,0
12.12.2018 13:00:00 4,6 1,8 4,9 4,9 4,7 8,1 11 6 22 12 ESE 1028,1 75 0 0,0
12.12.2018 12:00:00 4,4 1,8 4,2 4,7 4,6 8,1 10 6 18 10 E 1028,2 65 7 0,0
12.12.2018 11:00:00 4,3 2,1 4,0 4,0 4,5 8,1 5 3 16 8 E 1028,2 50 0 0,0
12.12.2018 10:00:00 3,9 1,4 3,3 3,4 4,5 8,1 9 5 14 8 E 1027,9 3,6 0 0,0
12.12.2018 09:00:00 3,7 1,0 2,8 3,2 4,6 8,1 8 5 18 10 E 1027,5 61 0 0,1
12.12.2018 08:00:00 4,0 1,3 3,1 3,5 4,6 8,2 9 5 15 8 ESE 1027,1 48 0 0,0
12.12.2018 07:00:00 3,9 1,4 2,9 3,6 4,7 8,2 6 4 19 10 ESE 1026,8 52 0 0,1
12.12.2018 06:00:00 5,3 1,5 4,4 3,7 4,7 8,2 15 8 23 12 ENE 1026,4 21 0 0,0
12.12.2018 05:00:00 5,5 0,9 5,0 3,7 4,7 8,2 16 9 23 12 ENE 1025,9 30 0 0,0
12.12.2018 04:00:00 5,2 0,6 4,8 3,6 4,7 8,2 16 8 26 14 NE 1025,9 18 0 0,0
12.12.2018 03:00:00 4,7 0,4 4,2 3,6 4,8 8,2 9 5 26 14 ENE 1025,9 43 0 0,0
12.12.2018 02:00:00 4,8 1,1 4,4 3,4 4,9 8,2 25 14 31 17 NE 1025,4 15 0 0,0
12.12.2018 01:00:00 4,6 1,5 3,3 3,6 5,0 8,2 16 9 25 14 E 1025,2 26 0 0,0
12.12.2018 00:00:00 5,3 1,5 4,9 4,0 5,1 8,2 18 10 24 13 ENE 1025,0 17 0 0,0
11.12.2018 23:00:00 5,5 2,0 4,7 4,3 5,2 8,2 18 10 24 13 ENE 1024,6 17 0 0,0
11.12.2018 22:00:00 5,9 2,7 5,2 4,5 5,2 8,2 16 9 26 14 ENE 1024,4 23 0 0,0
11.12.2018 21:00:00 6,2 3,0 5,3 4,6 5,2 8,2 19 10 29 15 NE 1024,0 24 0 0,0
11.12.2018 20:00:00 6,6 2,8 5,5 4,5 5,2 8,2 25 14 35 19 NNE 1023,5 23 0 0,0
11.12.2018 19:00:00 6,7 3,2 5,0 4,3 5,2 8,3 20 11 34 19 NNE 1023,3 20 0 0,1
11.12.2018 18:00:00 6,9 2,8 4,9 4,0 5,4 8,3 22 12 25 13 N 1022,9 14 0 0,0
11.12.2018 17:00:00 6,6 3,1 4,5 4,4 5,5 8,3 20 11 24 13 NNE 1022,4 17 0 0,0
11.12.2018 16:00:00 6,6 3,9 5,1 4,8 5,6 8,3 21 11 26 14 NE 1022,2 8 0 0,0
11.12.2018 15:00:00 6,7 3,9 4,8 5,5 5,6 8,3 12 7 40 22 N 1022,0 4,5 0 1,7
11.12.2018 14:00:00 7,4 3,9 7,2 6,0 5,5 8,3 27 15 41 22 NNW 1021,6 6 11 0,0
11.12.2018 13:00:00 7,4 3,7 8,1 5,8 5,3 8,3 32 17 39 21 NNW 1021,3 7 39 0,0
11.12.2018 12:00:00 7,5 3,1 8,1 5,5 5,2 8,3 32 17 45 24 NNW 1021,2 8 54 0,0
11.12.2018 11:00:00 7,5 3,0 6,5 4,9 5,1 8,3 37 20 50 27 NNW 1020,7 7 45 0,0
11.12.2018 10:00:00 7,5 3,0 6,4 4,4 5,0 8,3 41 22 53 28 N 1020,5 8 7 0,0
11.12.2018 09:00:00 7,2 3,3 5,7 4,2 5,1 8,3 42 23 59 32 NNW 1020,0 - 0 0,0
11.12.2018 08:00:00 7,3 2,5 5,7 4,1 5,1 8,4 44 24 72 39 NNW 1019,4 - 0 0,0
11.12.2018 07:00:00 7,1 3,0 6,2 4,2 5,1 8,4 44 24 53 29 NNW 1019,2 - 0 0,0
11.12.2018 06:00:00 7,2 2,9 5,6 4,2 5,2 8,4 44 24 55 30 NNW 1019,0 - 0 0,0
11.12.2018 05:00:00 6,3 2,9 4,7 4,3 5,2 8,4 45 24 58 31 NW 1018,8 - 0 0,0
11.12.2018 04:00:00 6,6 2,7 4,9 4,3 5,2 8,4 45 25 80 43 NNW 1018,9 - 0 0,3
11.12.2018 03:00:00 6,1 2,3 4,8 4,4 5,3 8,4 51 28 78 42 NW 1018,6 - 0 0,4
11.12.2018 02:00:00 5,8 2,5 4,5 4,6 5,3 8,4 48 26 63 34 NNW 1018,6 - 0 0,1
11.12.2018 01:00:00 7,0 3,4 5,3 4,5 5,3 8,4 45 24 72 39 NW 1018,6 8 0 0,1
11.12.2018 00:00:00 7,0 3,3 5,8 4,5 5,3 8,4 54 29 69 37 NW 1018,0 7 0 0,1
10.12.2018 23:00:00 6,1 2,6 4,6 4,6 5,3 8,4 61 33 89 48 NNW 1018,0 4,1 0 0,0
10.12.2018 22:00:00 7,5 1,9 6,1 4,5 5,4 8,4 58 32 83 45 NNW 1017,5 7 0 0,0
10.12.2018 21:00:00 7,5 2,3 5,7 4,6 5,4 8,4 55 30 78 42 NNW 1017,1 9 0 0,0
10.12.2018 20:00:00 7,4 3,0 5,4 4,4 5,5 8,5 55 30 98 53 NNW 1016,8 11 0 0,4
10.12.2018 19:00:00 6,6 3,0 5,2 4,7 5,5 8,5 48 26 91 49 NW 1016,8 9 0 0,1
10.12.2018 18:00:00 7,1 2,9 6,0 4,7 5,5 8,5 55 30 80 43 NW 1016,0 12 0 0,1
10.12.2018 17:00:00 7,2 3,8 5,8 4,8 5,6 8,5 50 27 69 37 NW 1015,7 10 0 0,0
10.12.2018 16:00:00 5,7 3,0 4,0 5,1 5,6 8,5 42 23 83 45 NNW 1015,7 10 6 1,0
10.12.2018 15:00:00 6,7 3,4 6,4 5,2 5,6 8,5 46 25 75 40 NW 1015,0 7 12 0,0
10.12.2018 14:00:00 6,8 2,8 7,0 5,4 5,5 8,5 47 25 69 38 WNW 1014,8 8 37 0,0
10.12.2018 13:00:00 7,0 2,2 6,3 5,3 5,3 8,5 55 30 74 40 NW 1014,6 9 37 0,3
10.12.2018 12:00:00 7,2 2,3 7,7 4,8 5,2 8,5 48 26 65 35 NW 1014,7 8 18 0,0
10.12.2018 11:00:00 6,2 2,0 5,8 4,6 5,2 8,5 51 28 67 36 NW 1014,6 - 39 0,0
10.12.2018 10:00:00 5,9 1,3 5,0 4,1 5,2 8,5 59 32 76 41 NW 1014,3 - 0 0,0
10.12.2018 09:00:00 6,3 2,1 4,5 3,8 5,3 8,5 41 22 73 39 NW 1013,9 - 0 0,0
10.12.2018 08:00:00 5,6 2,5 3,9 3,9 5,3 8,5 48 26 80 43 NW 1013,4 - 0 0,4
10.12.2018 07:00:00 5,8 0,9 4,9 3,9 5,4 8,5 58 31 80 43 NW 1012,9 - 0 0,0
10.12.2018 06:00:00 5,9 1,5 4,4 4,1 5,6 8,5 43 23 88 47 NW 1012,6 - 0 0,0
10.12.2018 05:00:00 6,3 2,1 5,2 4,2 5,7 8,5 48 26 94 51 NW 1011,9 - 0 0,1
10.12.2018 04:00:00 6,2 2,2 5,1 4,3 5,8 8,6 44 24 76 41 NW 1011,3 - 0 0,0
10.12.2018 03:00:00 6,5 2,2 5,2 4,7 5,8 8,6 46 25 77 42 NW 1010,8 - 0 0,0
10.12.2018 02:00:00 6,7 2,7 5,8 4,7 5,9 8,6 46 25 61 33 NNW 1010,0 - 0 0,0
10.12.2018 01:00:00 6,9 2,5 5,7 4,7 6,0 8,6 46 25 75 41 NW 1009,4 - 0 0,0
10.12.2018 00:00:00 6,6 2,9 5,7 4,9 6,1 8,6 47 25 66 35 NW 1008,7 - 0 0,0
09.12.2018 23:00:00 6,4 2,9 5,2 4,9 6,2 8,6 46 25 85 46 NNW 1007,8 7 0 0,0

tt = temperature
td = dewpoint
tt 5cm = temperature 5cm
tt -5cm = temperature -5cm
tt -20cm = temperature -20cm
tt -100cm = temperature -100cm
ff = wind speed
fx = gusts
dd = wind direction
ppp = reduced air pressure
vv = visibility
sd = sunshine duration
rr = precipitation

Next stations